NKS1496 KATL-KFLL

Flight info

Callsign NKS1496
Flight time 1h 28m
Altitude 37000
Route SMLTZ3 WALET ZPLEN TEEKY3
Aircraft A321/M-SDE3FGHIRWY/LB1

Departure

Time 2026-05-03 22:10
Airport Hartsfield Jackson Atlanta International Airport (KATL)

Arrival

Time 2026-05-03 23:38
Airport Fort Lauderdale Hollywood International Airport (KFLL)
Time Latitude Longitude Altitude Speed Heading
2026-05-03 20:19 33.63791 -84.43197 1010 ft 0 kts 296°
2026-05-03 21:57 33.63785 -84.43184 1010 ft 2 kts 296°
2026-05-03 21:57 33.63781 -84.43174 1010 ft 2 kts 290°
2026-05-03 21:57 33.63781 -84.43156 1009 ft 2 kts 253°
2026-05-03 21:58 33.63788 -84.43140 1009 ft 2 kts 224°
2026-05-03 21:58 33.63801 -84.43130 1009 ft 2 kts 194°
2026-05-03 21:58 33.63809 -84.43129 1009 ft 1 kts 177°
2026-05-03 21:58 33.63814 -84.43129 1009 ft 0 kts 179°
2026-05-03 22:01 33.63809 -84.43129 1009 ft 1 kts 179°
2026-05-03 22:01 33.63793 -84.43129 1009 ft 0 kts 179°
2026-05-03 22:02 33.63785 -84.43129 1009 ft 2 kts 179°
2026-05-03 22:02 33.63775 -84.43129 1009 ft 0 kts 179°
2026-05-03 22:04 33.63761 -84.43128 1009 ft 4 kts 179°
2026-05-03 22:04 33.63713 -84.43127 1009 ft 9 kts 177°
2026-05-03 22:04 33.63664 -84.43061 1009 ft 14 kts 96°
2026-05-03 22:05 33.63663 -84.42922 1008 ft 19 kts 90°
2026-05-03 22:05 33.63660 -84.42750 1005 ft 21 kts 94°
2026-05-03 22:05 33.63654 -84.42564 1001 ft 23 kts 90°
2026-05-03 22:05 33.63654 -84.42358 994 ft 26 kts 90°
2026-05-03 22:06 33.63654 -84.42130 985 ft 25 kts 90°
2026-05-03 22:06 33.63654 -84.41901 974 ft 29 kts 90°
2026-05-03 22:06 33.63654 -84.41682 967 ft 25 kts 90°
2026-05-03 22:06 33.63655 -84.41468 963 ft 26 kts 90°
2026-05-03 22:07 33.63654 -84.41251 963 ft 25 kts 91°
2026-05-03 22:07 33.63654 -84.41050 961 ft 22 kts 90°
2026-05-03 22:07 33.63635 -84.40920 957 ft 13 kts 144°
2026-05-03 22:07 33.63576 -84.40909 957 ft 7 kts 179°
2026-05-03 22:08 33.63518 -84.40906 957 ft 9 kts 179°
2026-05-03 22:08 33.63476 -84.40926 957 ft 5 kts 247°
2026-05-03 22:08 33.63473 -84.40980 959 ft 9 kts 270°
2026-05-03 22:08 33.63472 -84.41135 963 ft 41 kts 270°
2026-05-03 22:09 33.63472 -84.41783 972 ft 111 kts 270°
2026-05-03 22:09 33.63473 -84.42949 1012 ft 166 kts 270°
2026-05-03 22:09 33.63480 -84.44366 1606 ft 170 kts 270°
2026-05-03 22:10 33.63489 -84.47128 3049 ft 166 kts 269°
2026-05-03 22:10 33.63487 -84.48530 3500 ft 174 kts 269°
2026-05-03 22:10 33.63482 -84.50054 3784 ft 189 kts 269°
2026-05-03 22:10 33.63477 -84.51678 4074 ft 204 kts 269°
2026-05-03 22:11 33.63473 -84.53458 4366 ft 221 kts 269°
2026-05-03 22:11 33.63309 -84.55333 4684 ft 239 kts 250°
2026-05-03 22:11 33.62243 -84.56930 5042 ft 260 kts 213°
2026-05-03 22:11 33.60460 -84.57449 5703 ft 274 kts 178°
2026-05-03 22:12 33.58667 -84.56680 6484 ft 284 kts 153°
2026-05-03 22:12 33.56979 -84.55445 7214 ft 289 kts 153°
2026-05-03 22:12 33.55239 -84.54195 7899 ft 295 kts 154°
2026-05-03 22:12 33.53473 -84.52960 8609 ft 300 kts 154°
2026-05-03 22:13 33.51656 -84.51712 9343 ft 305 kts 155°
2026-05-03 22:13 33.49813 -84.50460 10081 ft 309 kts 155°
2026-05-03 22:13 33.47921 -84.49184 10666 ft 319 kts 156°
2026-05-03 22:13 33.45915 -84.47842 11023 ft 337 kts 156°
2026-05-03 22:14 33.43821 -84.46446 11362 ft 354 kts 156°
2026-05-03 22:14 33.41645 -84.44990 11951 ft 363 kts 156°
2026-05-03 22:14 33.39454 -84.43521 12729 ft 364 kts 156°
2026-05-03 22:14 33.37229 -84.42032 13450 ft 367 kts 156°
2026-05-03 22:15 33.34985 -84.40533 14124 ft 371 kts 156°
2026-05-03 22:15 33.32711 -84.39017 14790 ft 375 kts 156°
2026-05-03 22:15 33.30440 -84.37503 15432 ft 379 kts 156°
2026-05-03 22:15 33.28118 -84.35957 16066 ft 382 kts 157°
2026-05-03 22:16 33.25802 -84.34415 16682 ft 386 kts 157°
2026-05-03 22:16 33.23432 -84.32838 17291 ft 389 kts 157°
2026-05-03 22:16 33.21052 -84.31256 17869 ft 393 kts 157°
2026-05-03 22:16 33.18675 -84.29678 18413 ft 397 kts 157°
2026-05-03 22:17 33.16239 -84.28061 18970 ft 401 kts 157°
2026-05-03 22:17 33.13799 -84.26442 19516 ft 404 kts 157°
2026-05-03 22:17 33.11342 -84.24813 20049 ft 407 kts 157°
2026-05-03 22:17 33.08858 -84.23168 20589 ft 410 kts 157°
2026-05-03 22:18 33.06357 -84.21512 21127 ft 412 kts 157°
2026-05-03 22:18 33.03869 -84.19865 21646 ft 414 kts 157°
2026-05-03 22:18 33.01344 -84.18269 22157 ft 414 kts 160°
2026-05-03 22:18 32.98730 -84.16849 22665 ft 413 kts 164°
2026-05-03 22:19 32.96039 -84.15627 23157 ft 412 kts 167°
2026-05-03 22:19 32.93315 -84.14506 23619 ft 414 kts 167°
2026-05-03 22:19 32.90620 -84.13406 24039 ft 417 kts 167°
2026-05-03 22:19 32.87857 -84.12280 24454 ft 420 kts 167°
2026-05-03 22:20 32.85080 -84.11147 24862 ft 422 kts 167°
2026-05-03 22:20 32.82300 -84.10010 25259 ft 425 kts 167°
2026-05-03 22:20 32.79515 -84.08870 25644 ft 427 kts 167°
2026-05-03 22:20 32.76695 -84.07713 26023 ft 430 kts 167°
2026-05-03 22:21 32.73835 -84.06541 26396 ft 432 kts 167°
2026-05-03 22:21 32.70976 -84.05368 26757 ft 435 kts 167°
2026-05-03 22:21 32.68146 -84.04208 27107 ft 437 kts 167°
2026-05-03 22:21 32.65242 -84.03018 27458 ft 439 kts 167°
2026-05-03 22:22 32.62353 -84.01835 27796 ft 442 kts 167°
2026-05-03 22:22 32.59467 -84.00654 28120 ft 444 kts 167°
2026-05-03 22:22 32.56525 -83.99451 28446 ft 446 kts 167°
2026-05-03 22:22 32.53595 -83.98253 28763 ft 448 kts 167°
2026-05-03 22:23 32.50627 -83.97041 29075 ft 451 kts 167°
2026-05-03 22:23 32.47698 -83.95844 29374 ft 453 kts 167°
2026-05-03 22:23 32.44696 -83.94619 29727 ft 453 kts 167°
2026-05-03 22:23 32.41762 -83.93420 30145 ft 452 kts 167°
2026-05-03 22:24 32.38788 -83.92208 30560 ft 451 kts 167°
2026-05-03 22:24 32.35839 -83.91045 30940 ft 448 kts 169°
2026-05-03 22:24 32.32885 -83.89980 31300 ft 447 kts 169°
2026-05-03 22:24 32.29886 -83.88906 31653 ft 447 kts 169°
2026-05-03 22:25 32.26922 -83.87846 31999 ft 446 kts 169°
2026-05-03 22:25 32.23981 -83.86794 32336 ft 445 kts 170°
2026-05-03 22:25 32.21028 -83.85736 32672 ft 445 kts 170°
2026-05-03 22:25 32.18086 -83.84683 33001 ft 444 kts 170°
2026-05-03 22:26 32.15128 -83.83626 33325 ft 443 kts 170°
2026-05-03 22:26 32.12210 -83.82582 33637 ft 443 kts 170°
2026-05-03 22:26 32.09269 -83.81531 33947 ft 442 kts 170°
2026-05-03 22:26 32.06318 -83.80477 34252 ft 441 kts 170°
2026-05-03 22:27 32.03370 -83.79425 34549 ft 441 kts 170°
2026-05-03 22:27 32.00478 -83.78394 34831 ft 440 kts 170°
2026-05-03 22:27 31.97529 -83.77343 35117 ft 439 kts 170°
2026-05-03 22:27 31.94635 -83.76311 35378 ft 439 kts 170°
2026-05-03 22:28 31.91716 -83.75273 35600 ft 440 kts 170°
2026-05-03 22:28 31.88769 -83.74226 35805 ft 440 kts 170°
2026-05-03 22:28 31.85849 -83.73190 36007 ft 441 kts 170°
2026-05-03 22:28 31.82949 -83.72163 36206 ft 442 kts 170°
2026-05-03 22:29 31.79980 -83.71109 36400 ft 443 kts 170°
2026-05-03 22:29 31.77046 -83.70067 36580 ft 444 kts 170°
2026-05-03 22:29 31.74099 -83.69020 36754 ft 445 kts 170°
2026-05-03 22:30 31.68175 -83.66915 36927 ft 451 kts 169°
2026-05-03 22:30 31.62172 -83.64635 37097 ft 458 kts 168°
2026-05-03 22:31 31.56047 -83.62275 37114 ft 467 kts 168°
2026-05-03 22:31 31.49835 -83.59889 37115 ft 474 kts 168°
2026-05-03 22:32 31.43583 -83.57492 37115 ft 474 kts 168°
2026-05-03 22:32 31.37319 -83.55095 37115 ft 474 kts 168°
2026-05-03 22:33 31.31094 -83.52718 37115 ft 474 kts 168°
2026-05-03 22:33 31.24841 -83.50335 37116 ft 474 kts 168°
2026-05-03 22:34 31.18576 -83.47950 37115 ft 474 kts 168°
2026-05-03 22:34 31.12319 -83.45572 37112 ft 474 kts 168°
2026-05-03 22:35 31.06044 -83.43189 37107 ft 474 kts 168°
2026-05-03 22:35 30.99821 -83.40828 37104 ft 474 kts 168°
2026-05-03 22:36 30.93532 -83.38443 37102 ft 475 kts 169°
2026-05-03 22:36 30.87275 -83.36076 37104 ft 475 kts 169°
2026-05-03 22:37 30.80997 -83.33699 37105 ft 474 kts 169°
2026-05-03 22:37 30.74719 -83.31310 37106 ft 474 kts 169°
2026-05-03 22:38 30.68519 -83.28567 37106 ft 481 kts 163°
2026-05-03 22:38 30.62465 -83.25320 37107 ft 482 kts 162°
2026-05-03 22:39 30.56390 -83.22040 37107 ft 482 kts 162°
2026-05-03 22:39 30.50334 -83.18779 37107 ft 482 kts 162°
2026-05-03 22:40 30.44423 -83.15605 37107 ft 482 kts 162°
2026-05-03 22:40 30.38361 -83.12355 37107 ft 482 kts 162°
2026-05-03 22:41 30.32302 -83.09111 37106 ft 481 kts 162°
2026-05-03 22:41 30.26208 -83.05854 37101 ft 481 kts 162°
2026-05-03 22:42 30.20143 -83.02616 37095 ft 481 kts 162°
2026-05-03 22:42 30.14071 -82.99378 37089 ft 481 kts 162°
2026-05-03 22:43 30.07831 -82.97173 37087 ft 465 kts 176°
2026-05-03 22:43 30.01460 -82.95834 37084 ft 463 kts 178°
2026-05-03 22:44 29.95157 -82.94511 37084 ft 463 kts 177°
2026-05-03 22:44 29.88833 -82.93153 37084 ft 463 kts 177°
2026-05-03 22:45 29.82501 -82.91779 37084 ft 463 kts 177°
2026-05-03 22:45 29.76204 -82.90410 37082 ft 462 kts 177°
2026-05-03 22:46 29.69919 -82.89043 37081 ft 462 kts 177°
2026-05-03 22:46 29.63608 -82.87671 37080 ft 461 kts 177°
2026-05-03 22:47 29.57322 -82.86306 37080 ft 461 kts 178°
2026-05-03 22:47 29.51051 -82.84946 37080 ft 461 kts 178°
2026-05-03 22:48 29.44762 -82.83584 37080 ft 460 kts 178°
2026-05-03 22:48 29.38490 -82.82227 37080 ft 460 kts 178°
2026-05-03 22:49 29.32231 -82.80875 37080 ft 459 kts 178°
2026-05-03 22:49 29.25939 -82.79517 37080 ft 459 kts 178°
2026-05-03 22:50 29.19691 -82.78172 37077 ft 459 kts 178°
2026-05-03 22:50 29.13441 -82.76826 37071 ft 459 kts 178°
2026-05-03 22:51 29.07180 -82.75479 37066 ft 458 kts 178°
2026-05-03 22:51 29.00938 -82.74137 37063 ft 456 kts 178°
2026-05-03 22:52 28.94754 -82.72810 37063 ft 454 kts 178°
2026-05-03 22:52 28.88576 -82.71487 37064 ft 453 kts 178°
2026-05-03 22:53 28.82425 -82.70174 37063 ft 453 kts 178°
2026-05-03 22:53 28.76216 -82.68849 37063 ft 453 kts 178°
2026-05-03 22:54 28.70069 -82.67538 37063 ft 453 kts 178°
2026-05-03 22:54 28.63850 -82.66212 37063 ft 453 kts 178°
2026-05-03 22:55 28.57655 -82.64892 37063 ft 453 kts 178°
2026-05-03 22:55 28.51438 -82.63569 37063 ft 453 kts 178°
2026-05-03 22:56 28.45157 -82.62234 37063 ft 453 kts 178°
2026-05-03 22:56 28.38979 -82.60922 37061 ft 453 kts 178°
2026-05-03 22:57 28.32763 -82.59604 37061 ft 453 kts 178°
2026-05-03 22:57 28.26615 -82.58300 37060 ft 453 kts 178°
2026-05-03 22:58 28.20382 -82.56979 37055 ft 453 kts 178°
2026-05-03 22:58 28.14199 -82.55669 37049 ft 453 kts 178°
2026-05-03 22:59 28.08018 -82.54359 37045 ft 453 kts 178°
2026-05-03 22:59 28.01813 -82.53021 37044 ft 455 kts 176°
2026-05-03 23:00 27.95702 -82.51191 37043 ft 462 kts 171°
2026-05-03 23:00 27.89551 -82.49011 37040 ft 462 kts 171°
2026-05-03 23:01 27.83436 -82.46841 37037 ft 462 kts 171°
2026-05-03 23:01 27.77339 -82.44681 37034 ft 462 kts 171°
2026-05-03 23:02 27.71213 -82.42512 37032 ft 462 kts 171°
2026-05-03 23:02 27.65115 -82.40356 37031 ft 462 kts 171°
2026-05-03 23:03 27.58963 -82.38180 37031 ft 462 kts 171°
2026-05-03 23:03 27.52861 -82.36022 37032 ft 462 kts 171°
2026-05-03 23:04 27.46755 -82.33856 37032 ft 462 kts 171°
2026-05-03 23:04 27.40661 -82.31584 37032 ft 466 kts 168°
2026-05-03 23:05 27.34689 -82.28656 37033 ft 474 kts 162°
2026-05-03 23:05 27.28882 -82.25059 37034 ft 477 kts 159°
2026-05-03 23:06 27.23133 -82.21390 37035 ft 477 kts 159°
2026-05-03 23:06 27.17345 -82.17714 36707 ft 478 kts 159°
2026-05-03 23:06 27.14481 -82.15895 36332 ft 472 kts 159°
2026-05-03 23:07 27.11665 -82.14107 35715 ft 469 kts 159°
2026-05-03 23:07 27.08830 -82.12315 34905 ft 471 kts 159°
2026-05-03 23:07 27.05987 -82.10523 34028 ft 474 kts 159°
2026-05-03 23:07 27.03091 -82.08697 33126 ft 476 kts 159°
2026-05-03 23:08 27.00239 -82.06860 32203 ft 482 kts 156°
2026-05-03 23:08 26.97402 -82.04747 31177 ft 492 kts 150°
2026-05-03 23:08 26.94723 -82.02380 30276 ft 502 kts 144°
2026-05-03 23:08 26.92155 -81.99695 29411 ft 511 kts 139°
2026-05-03 23:09 26.89704 -81.96836 28636 ft 513 kts 136°
2026-05-03 23:09 26.87250 -81.93903 28126 ft 516 kts 135°
2026-05-03 23:09 26.84790 -81.90955 27586 ft 517 kts 135°
2026-05-03 23:09 26.82357 -81.88051 27049 ft 517 kts 135°
2026-05-03 23:10 26.79890 -81.85126 26497 ft 518 kts 135°
2026-05-03 23:10 26.77409 -81.82198 26026 ft 517 kts 135°
2026-05-03 23:10 26.74908 -81.79269 25601 ft 519 kts 135°
2026-05-03 23:10 26.72426 -81.76386 25083 ft 519 kts 135°
2026-05-03 23:11 26.69934 -81.73493 24546 ft 520 kts 135°
2026-05-03 23:11 26.67434 -81.70592 24006 ft 520 kts 135°
2026-05-03 23:11 26.64917 -81.67668 23457 ft 520 kts 134°
2026-05-03 23:11 26.62507 -81.64638 23034 ft 517 kts 129°
2026-05-03 23:12 26.60300 -81.61485 22597 ft 514 kts 127°
2026-05-03 23:12 26.58189 -81.58353 21913 ft 508 kts 126°
2026-05-03 23:12 26.56093 -81.55205 21384 ft 503 kts 126°
2026-05-03 23:12 26.54021 -81.52097 20739 ft 495 kts 126°
2026-05-03 23:13 26.52011 -81.49091 20064 ft 480 kts 126°
2026-05-03 23:13 26.50015 -81.46119 19536 ft 469 kts 126°
2026-05-03 23:13 26.48089 -81.43256 19063 ft 457 kts 126°
2026-05-03 23:13 26.46204 -81.40459 18525 ft 449 kts 126°
2026-05-03 23:14 26.44342 -81.37700 17954 ft 441 kts 126°
2026-05-03 23:14 26.42511 -81.34989 17391 ft 434 kts 127°
2026-05-03 23:14 26.40698 -81.32374 16844 ft 427 kts 128°
2026-05-03 23:14 26.38825 -81.29832 16324 ft 419 kts 129°
2026-05-03 23:15 26.36961 -81.27341 15786 ft 412 kts 129°
2026-05-03 23:15 26.35141 -81.24918 15244 ft 401 kts 129°
2026-05-03 23:15 26.33398 -81.22593 14578 ft 388 kts 129°
2026-05-03 23:15 26.31709 -81.20338 14072 ft 372 kts 129°
2026-05-03 23:16 26.30076 -81.18157 13635 ft 357 kts 129°
2026-05-03 23:16 26.28530 -81.16095 13186 ft 343 kts 130°
2026-05-03 23:16 26.27014 -81.14093 12702 ft 334 kts 130°
2026-05-03 23:16 26.25506 -81.12109 12560 ft 339 kts 130°
2026-05-03 23:17 26.23993 -81.10121 12558 ft 340 kts 130°
2026-05-03 23:17 26.22448 -81.08091 12558 ft 340 kts 130°
2026-05-03 23:17 26.20956 -81.06130 12551 ft 324 kts 130°
2026-05-03 23:17 26.19526 -81.04250 12543 ft 308 kts 130°
2026-05-03 23:18 26.18166 -81.02462 12551 ft 307 kts 130°
2026-05-03 23:18 26.16773 -81.00633 12804 ft 313 kts 130°
2026-05-03 23:18 26.15361 -80.98778 13002 ft 311 kts 130°
2026-05-03 23:18 26.13896 -80.97028 12993 ft 311 kts 143°
2026-05-03 23:19 26.11933 -80.96062 13002 ft 309 kts 173°
2026-05-03 23:19 26.09855 -80.96295 12873 ft 302 kts 202°
2026-05-03 23:19 26.08159 -80.97585 12412 ft 300 kts 230°
2026-05-03 23:19 26.07188 -80.99594 11918 ft 300 kts 257°
2026-05-03 23:20 26.07130 -81.01907 11466 ft 298 kts 283°
2026-05-03 23:20 26.07980 -81.03936 11099 ft 294 kts 308°
2026-05-03 23:20 26.09295 -81.05689 11020 ft 294 kts 311°
2026-05-03 23:20 26.10630 -81.07414 11017 ft 295 kts 311°
2026-05-03 23:21 26.11969 -81.09166 11017 ft 296 kts 310°
2026-05-03 23:21 26.13297 -81.10930 11018 ft 296 kts 310°
2026-05-03 23:21 26.14612 -81.12693 11019 ft 296 kts 310°
2026-05-03 23:21 26.15910 -81.14441 11020 ft 296 kts 310°
2026-05-03 23:22 26.18538 -81.17987 11022 ft 296 kts 310°
2026-05-03 23:22 26.20042 -81.19505 11001 ft 296 kts 332°
2026-05-03 23:22 26.22018 -81.20084 11016 ft 296 kts
2026-05-03 23:23 26.23983 -81.19581 11020 ft 296 kts 27°
2026-05-03 23:23 26.25545 -81.18116 11016 ft 295 kts 55°
2026-05-03 23:23 26.26335 -81.16048 10791 ft 291 kts 81°
2026-05-03 23:23 26.26194 -81.13813 10316 ft 293 kts 109°
2026-05-03 23:24 26.25168 -81.11868 10068 ft 292 kts 129°
2026-05-03 23:24 26.23865 -81.10144 10028 ft 294 kts 130°
2026-05-03 23:24 26.22540 -81.08421 10024 ft 294 kts 130°
2026-05-03 23:24 26.21216 -81.06679 10022 ft 294 kts 130°
2026-05-03 23:25 26.19901 -81.04931 10021 ft 295 kts 130°
2026-05-03 23:25 26.18589 -81.03174 10019 ft 295 kts 129°
2026-05-03 23:25 26.17287 -81.01426 10018 ft 295 kts 129°
2026-05-03 23:25 26.15966 -80.99651 10013 ft 296 kts 129°
2026-05-03 23:26 26.14660 -80.97894 10013 ft 296 kts 129°
2026-05-03 23:26 26.13563 -80.95950 9709 ft 296 kts 112°
2026-05-03 23:26 26.13041 -80.93787 9349 ft 293 kts 96°
2026-05-03 23:26 26.13030 -80.91512 8984 ft 291 kts 85°
2026-05-03 23:27 26.13064 -80.89271 8651 ft 291 kts 94°
2026-05-03 23:27 26.12835 -80.87048 8346 ft 289 kts 97°
2026-05-03 23:27 26.12523 -80.84833 7966 ft 288 kts 98°
2026-05-03 23:27 26.12200 -80.82647 7582 ft 287 kts 98°
2026-05-03 23:28 26.11887 -80.80479 7215 ft 285 kts 98°
2026-05-03 23:28 26.11571 -80.78297 6845 ft 284 kts 98°
2026-05-03 23:28 26.11265 -80.76137 6477 ft 282 kts 98°
2026-05-03 23:28 26.10962 -80.73994 6111 ft 281 kts 98°
2026-05-03 23:29 26.10660 -80.71859 5746 ft 279 kts 98°
2026-05-03 23:29 26.10357 -80.69736 5382 ft 278 kts 98°
2026-05-03 23:29 26.10057 -80.67630 5072 ft 275 kts 98°
2026-05-03 23:29 26.09756 -80.65505 5014 ft 276 kts 98°
2026-05-03 23:30 26.09456 -80.63393 5007 ft 277 kts 98°
2026-05-03 23:30 26.09157 -80.61292 5006 ft 277 kts 98°
2026-05-03 23:30 26.08856 -80.59182 5006 ft 277 kts 98°
2026-05-03 23:30 26.08551 -80.57047 5006 ft 277 kts 98°
2026-05-03 23:31 26.08250 -80.54939 5006 ft 277 kts 98°
2026-05-03 23:31 26.07966 -80.52814 5001 ft 272 kts 95°
2026-05-03 23:31 26.07849 -80.50762 4999 ft 256 kts 90°
2026-05-03 23:31 26.07835 -80.48845 4999 ft 241 kts 89°
2026-05-03 23:32 26.07849 -80.47039 4998 ft 226 kts 88°
2026-05-03 23:32 26.07870 -80.45361 4944 ft 215 kts 88°
2026-05-03 23:32 26.07878 -80.43697 4746 ft 209 kts 88°
2026-05-03 23:32 26.07876 -80.42114 4482 ft 204 kts 88°
2026-05-03 23:33 26.07867 -80.40552 4206 ft 199 kts 89°
2026-05-03 23:33 26.07855 -80.39031 3940 ft 196 kts 89°
2026-05-03 23:33 26.07843 -80.37514 3679 ft 196 kts 88°
2026-05-03 23:33 26.07831 -80.36016 3420 ft 195 kts 88°
2026-05-03 23:34 26.07820 -80.34501 3158 ft 194 kts 89°
2026-05-03 23:34 26.07808 -80.33015 2901 ft 193 kts 89°
2026-05-03 23:34 26.07797 -80.31532 2646 ft 192 kts 89°
2026-05-03 23:34 26.07786 -80.30048 2389 ft 190 kts 89°
2026-05-03 23:35 26.07775 -80.28566 2135 ft 190 kts 89°
2026-05-03 23:35 26.07764 -80.27093 1881 ft 189 kts 89°
2026-05-03 23:35 26.07754 -80.25624 1628 ft 188 kts 88°
2026-05-03 23:35 26.07744 -80.24178 1390 ft 183 kts 88°
2026-05-03 23:36 26.07734 -80.22825 1153 ft 170 kts 88°
2026-05-03 23:36 26.07725 -80.21574 914 ft 155 kts 88°
2026-05-03 23:36 26.07718 -80.20416 694 ft 140 kts 88°
2026-05-03 23:36 26.07711 -80.19353 523 ft 138 kts 88°
2026-05-03 23:37 26.07705 -80.18292 350 ft 138 kts 88°
2026-05-03 23:37 26.07698 -80.17223 169 ft 137 kts 87°
2026-05-03 23:37 26.07692 -80.16168 18 ft 134 kts 88°
2026-05-03 23:37 26.07693 -80.15259 10 ft 104 kts 90°
2026-05-03 23:38 26.07685 -80.14620 10 ft 49 kts 94°
2026-05-03 23:38 26.07684 -80.14380 10 ft 25 kts 90°
2026-05-03 23:38 26.07648 -80.14239 10 ft 16 kts 154°
2026-05-03 23:38 26.07587 -80.14230 10 ft 1 kts 180°
2026-05-03 23:39 26.07578 -80.14230 10 ft 2 kts 180°
2026-05-03 23:39 26.07561 -80.14242 10 ft 4 kts 239°
2026-05-03 23:39 26.07557 -80.14269 10 ft 0 kts 270°